STARLINK-32408, 62054

Orbit data source: Space-Track

STARLINK-32408, 62054 is a payload satellite owned by SpaceX/Seattle (US) in LEO that was launched on Thu, 21 Nov 2024 UTC via an FALCON 9 launch vehicle from the Air Force Eastern Test Range (AFETR). Payload-class satellites include a variety of spacecraft equipped with specific instruments for various scientific and technological missions. These include communications satellites like Starlink; space stations such as the ISS; scientific satellites like the Hubble; Earth observation satellites from companies like Planet Labs, Umbra, and HawkEye 360; GPS; miniature CubeSats for education and research; and military/defense satellites.

Loading next visibility...
Identifier
62054, 2024-216Y
Orbit
LEO
Last TLE update
5 hours ago
Origin
Manufacturer
SpaceX/Seattle
Mission
Operational Commercial Communications
Bus & Motor
STARLINK V2M, Unknown motor
Mass
730 kg wet, ~700 kg dry
Launch date (UTC)
2024-11-21 (7 months ago)
Launch vehicle
FALCON 9
Launch site
Air Force Eastern Test Range (AFETR)
Object type
Payload
Rocket body
Debris
Shape & HBR
Box + 2 Pan, 29 m
Radar Cross Section
36.964 m², Large (>1 m²)

Expand to show TLE details & history

TLE from 5 hours ago
0 STARLINK-32408
1 62054U 24216Y   25186.50002315  .00067658  00000-0  24501-2 0  9996
2 62054  42.9996 212.3355 0001226 285.6893 341.1694 15.27521333 34918
Epoch: 2025-07-05T12:00Z
TLE epoch observation values (Epoch: 2025-07-05T12:00:02Z)
Latitude
-43.0775°
Longitude
14.30059°
Altitude
495.744 km
Speed
7.618 km/s
True Right ascension
07h 52m 11s
True Declination
-42° 53' 58"
Sunlit
Object was in daylight at epoch
Visualization orbit readout
Latitude
30.35385°
Longitude
145.98526°
Altitude
484.196 km
Speed
7.628 km/s
Apparent Right ascension
16h 55m 05s
Apparent Declination
-3° 17' 52"
Sunlit
Object is in full shadow
Visualization observer readout
Local Sidereal Time
05:14:40
Azimuth
8.156° NNE
Elevation
-53.115°
Doppler factor
1
Orbital elements
Apogee altitude
486.011 km
Perigee altitude
484.329 km
Semi-major axis
6,863.307 km
Eccentricity
0.00012
Inclination
42.9996°
RAAN
212.3355°
Arg. of periapsis
285.6893°
True anomaly
Unknown
Mean anomaly
341.1694°
Eccentric anomaly
Unknown
Mean motion
3.81718 °/min
Orbital period
94.31 mins
BSTAR
0.0024501
Loading maneuver chart data...
Loading SW <> Apogee altitude chart data...
Loading historical data...
Loading historical data...
Loading historical data...
Loading historical data...
Loading historical data...
Loading historical data...
Loading historical data...

STARLINK-32408 Visibility forecast

Observer location: undefined°, undefined°

Span
Click to sort rows by Start time (UTC) header in descending order
Start Az.
Max El. time (UTC)
Max El. Az.
Max El.
End time (UTC)
End Az.
4 mins2025-07-06 04:17:19.065Z182.016° SSW2025-07-06 04:19:19.065Z144.142° SSE18.128°2025-07-06 04:21:19.065Z106.231° ESE
6 mins2025-07-06 05:55:19.065Z244.977° WSW2025-07-06 05:58:19.065Z93.436° ESE42.666°2025-07-06 06:01:19.065Z73.151° E
5 mins2025-07-06 07:35:19.065Z293.514° NW2025-07-06 07:37:19.065Z18.101° NNE37.479°2025-07-06 07:40:19.065Z73.59° E
5 mins2025-07-06 09:14:19.065Z294.055° NW2025-07-06 09:16:19.065Z39.316° NE43.722°2025-07-06 09:19:19.065Z100.039° ESE
4 mins2025-07-06 10:53:19.065Z255.283° W2025-07-06 10:55:19.065Z198.929° SSW26.779°2025-07-06 10:57:19.065Z156.75° SSE
|